Regional Weather Roundup
Issued by NWS

Home | Current Version | Previous Version | Graphics & Text | Print | Product List | Glossary On
Versions: 1 2 3 4 5 6 7 8 9 10 11 12 13 14 15 16 17 18 19 20 21 22 23 24 25 26 27 28 29 30 31 32 33 34 35 36 37 38 39 40 41 42 43 44 45 46 47 48 49 50
537
ASUS45 KCYS 200910
RWRWY

WYOMING REGIONAL WEATHER ROUNDUP
NATIONAL WEATHER SERVICE CHEYENNE WY
200 AM MST MON FEB 20 2017

NOTE:  "FAIR" INDICATES FEW OR NO CLOUDS BELOW 12,000 FEET
WITH NO SIGNIFICANT WEATHER AND/OR OBSTRUCTIONS TO VISIBILITY.

WYZ001-201000-
YELLOWSTONE NATIONAL PARK

CITY           SKY/WX    TMP DP  RH WIND       PRES   REMARKS
LK YELLOWSTONE   N/A     23  20  88 VRB3      29.87R
W YELLOWSTONE  NOT AVBL

$$
WYZ002>013-054>058-071-098>099-201000-
NORTHERN WYOMING

CITY           SKY/WX    TMP DP  RH WIND       PRES   REMARKS
JACKSON        MOCLDY    28  27  93 SW9       29.91S WCI  20
CODY           FAIR      38  18  44 SW13      29.81R WCI  30
GREYBULL       FAIR      35  25  66 SE5       29.80S WCI  31
WORLAND        FAIR      31  29  92 S8        29.81R WCI  23
SHERIDAN       FAIR      39  29  67 W8        29.75R WCI  33
BUFFALO        FAIR      37  31  78 CALM      29.75R
GILLETTE       CLOUDY    38  36  92 SW7       29.72R WCI  33
HULETT         RAIN      43  36  75 W7G17     29.73R
NEWCASTLE      PTSUNNY   39  32  75 NW20G28   29.71R WCI  30

$$
WYZ014>020-022>026-101>103-201000-
CENTRAL WYOMING

CITY           SKY/WX    TMP DP  RH WIND       PRES   REMARKS
BIG PINEY      FAIR      12   9  87 E8        29.97R WCI   0
PINEDALE       FAIR      10  10 100 NW5       29.97S WCI   2
DUBOIS         FAIR      25  18  74 N7        29.87R WCI  17
LANDER         NOT AVBL
RIVERTON       FAIR      30  18  60 NW10      29.86R WCI  21
CASPER         FAIR      30  18  60 W12       29.81R WCI  20
DOUGLAS        FAIR      35  23  61 NW13      29.78R WCI  26

$$
WYZ021-027>030-104>119-201000-
SOUTHERN WYOMING

CITY           SKY/WX    TMP DP  RH WIND       PRES   REMARKS
EVANSTON       FAIR      28  22  78 S8        29.96R WCI  20
FORT BRIDGER   FAIR      35  24  65 SW15      29.98S WCI  25
ROCK SPRINGS   FAIR      30  25  81 SW12      29.96R WCI  20
DIXON            N/A     21  19  93 CALM      30.02R
RAWLINS        FAIR      29  23  78 W6        29.94R WCI  23
SARATOGA       FAIR      28  27  93 W8        29.94F WCI  20
LARAMIE        FAIR      32  15  49 W20G31    29.85S WCI  20
CHEYENNE       FAIR      39  14  36 NW17G24   29.81S WCI  30
TORRINGTON     FAIR      43  24  47 NW9       29.74R
PINE BLUFFS    FAIR      41  18  38 NW21G36   29.78S

$$




USA.gov is the U.S. government's official web portal to all federal, state and local government web resources and services.